CAPE
110 133 188 120 78 167 146 129 62 54 75 60 36 27 17 5 37 28 1 0 4 0 0 0 0 0 0 0 0 0 0 0 0 0 0 0 0 0 0 0 0 0 0 0 0 0 0
151 128 181 247 150 140 272 235 155 120 80 58 64 68 39 35 18 50 32 0 0 0 0 0 0 0 0 0 0 0 0 0 0 0 0 0 0 0 0 0 0 0 0 0 0 0 0
123 192 188 256 320 184 299 271 254 167 79 84 49 13 52 60 42 66 27 6 0 0 0 0 0 0 0 0 0 0 0 0 0 0 0 0 0 0 0 0 0 0 0 0 0 0 0
196 166 235 256 338 327 273 349 319 270 140 84 95 97 53 24 25 74 33 22 0 0 0 0 0 0 0 0 0 0 0 0 0 0 0 0 0 0 0 0 0 0 0 0 0 0 0
252 265 260 257 344 347 253 287 318 347 222 111 77 95 70 31 19 51 65 8 0 0 0 0 0 0 0 0 0 0 0 0 0 0 0 0 0 0 0 0 0 0 0 0 0 0 0
281 292 262 235 359 379 320 305 319 318 292 180 70 80 82 74 11 7 103 10 0 0 0 0 0 0 0 0 0 0 0 0 0 0 0 0 0 0 0 0 0 0 0 0 0 0 0
230 239 258 242 343 392 324 293 355 313 293 189 116 81 79 50 63 12 79 0 0 0 0 0 0 0 0 0 0 0 0 0 0 0 0 0 0 0 0 0 0 0 0 0 0 0 0
305 290 223 231 318 357 309 276 326 310 293 240 176 83 58 55 55 17 4 0 0 0 0 0 0 0 0 0 0 0 0 0 0 0 0 0 0 0 0 0 0 0 0 0 0 0 0
292 251 257 257 295 356 330 292 277 240 252 238 192 93 61 52 33 7 22 2 0 0 0 0 0 0 0 0 0 0 0 0 0 0 0 0 0 0 0 0 0 0 0 0 0 0 0
238 209 265 277 334 296 248 279 248 213 208 226 192 124 75 51 2 2 38 5 0 0 0 0 0 0 0 0 0 0 0 0 0 0 0 0 0 0 0 0 0 0 0 0 0 0 0
258 270 255 254 344 320 306 251 266 211 236 277 127 123 106 20 0 4 0 0 0 0 0 0 0 0 0 0 0 0 0 0 0 0 0 0 0 0 0 0 0 0 0 0 0 0 0
282 281 288 281 307 282 283 258 235 239 192 310 112 73 49 45 22 3 9 3 5 2 0 0 0 0 0 0 0 0 0 0 0 0 0 0 0 0 0 0 0 0 0 0 0 0 0
256 268 294 265 238 255 214 237 256 244 170 119 66 6 4 17 0 22 64 15 13 1 0 0 0 0 0 0 0 0 0 0 0 0 0 0 0 0 0 0 0 0 0 0 0 0 0
259 282 313 248 201 211 306 299 211 191 190 116 6 1 0 0 17 46 45 5 0 0 0 0 0 0 0 0 0 0 0 0 0 0 0 0 0 0 0 0 0 0 0 0 0 0 0
140 227 260 284 281 253 189 204 212 218 204 114 16 0 3 0 42 49 1 1 0 0 0 0 0 0 0 0 0 0 0 0 0 0 0 0 0 0 0 0 0 0 0 0 0 0 0
170 157 196 217 259 298 289 254 236 235 226 154 19 7 2 0 94 10 3 5 0 0 0 0 0 0 0 0 0 0 0 0 0 0 0 0 0 0 0 0 0 0 0 0 0 0 0
166 181 100 157 203 253 287 252 210 190 189 100 6 25 0 0 33 17 0 4 6 0 0 0 0 0 0 0 0 0 0 0 0 0 0 0 0 0 0 0 0 0 0 0 0 0 0
103 157 185 75 158 218 267 260 222 188 180 8 18 31 0 46 22 4 2 0 0 0 0 0 0 0 0 0 0 0 0 0 0 0 0 0 0 0 0 0 0 0 0 0 0 0 0
42 107 175 142 28 99 202 209 220 226 197 4 1 4 0 13 0 1 3 1 1 0 0 0 0 0 0 0 0 0 0 0 0 0 0 0 0 0 0 0 0 0 0 0 0 0 0
25 50 105 111 111 61 16 27 139 193 166 40 0 0 1 7 7 8 39 10 0 0 0 0 0 0 0 0 0 0 0 0 0 0 0 0 0 0 0 0 0 0 0 0 0 0 0
49 49 44 71 81 96 93 23 12 24 109 21 0 0 0 0 0 1 1 1 0 0 0 0 0 0 0 0 0 0 0 0 0 0 0 0 0 0 0 0 0 0 0 0 0 0 0
66 53 42 45 36 49 62 55 35 17 79 37 0 1 3 0 1 2 2 0 0 0 0 0 0 0 0 0 0 0 0 0 0 0 0 0 0 0 0 0 0 0 0 0 0 0 0
66 62 50 29 22 33 56 44 56 12 66 19 4 7 7 0 3 3 1 0 0 0 0 0 0 0 0 0 0 0 0 0 0 0 0 0 0 0 0 0 0 0 0 0 0 0 0
63 79 82 39 17 29 37 32 28 26 67 29 20 9 5 0 10 3 2 5 0 0 0 0 0 0 0 0 0 0 0 0 0 0 0 0 0 0 0 0 0 0 0 0 0 0 0
52 67 85 46 47 27 55 78 26 15 58 1 9 11 2 0 9 3 1 3 1 0 0 0 0 0 0 0 0 0 0 0 0 0 0 0 0 0 0 0 0 0 0 0 0 0 0
40 50 85 104 155 133 113 61 58 23 38 4 0 12 11 1 1 10 9 2 1 0 0 0 0 0 0 0 0 0 0 0 0 0 0 0 0 0 0 0 0 0 0 0 0 0 0
33 42 53 59 142 127 141 97 87 84 70 4 0 10 11 1 9 8 11 9 4 2 0 1 1 0 0 0 0 0 0 0 0 0 0 0 0 0 0 0 0 0 0 0 0 0 0
48 27 34 27 30 63 78 72 50 68 65 11 2 3 10 0 6 5 13 8 7 4 1 1 0 2 0 0 0 0 0 0 0 0 0 0 0 0 0 0 0 0 0 0 0 0 0
47 41 29 16 14 20 36 61 40 80 34 8 1 3 3 5 4 8 6 10 16 7 6 3 2 1 4 0 0 0 0 0 0 0 0 0 0 0 0 0 0 0 0 0 0 0 0
CIN
0 0 0 0 0 0 0 0 0 -4 0 -4 0 0 0 -10 0 0 0 0 0 0 0 0 0 0 0 0 0 0 0 0 0 0 0 0 0 0 0 0 0 0 0 0 0 0 0
0 0 0 0 0 0 0 0 0 0 0 -6 -9 0 0 0 -6 0 0 0 0 0 0 0 0 0 0 0 0 0 0 0 0 0 0 0 0 0 0 0 0 0 0 0 0 0 0
0 0 0 0 0 0 0 0 0 0 0 -3 -32 0 -1 0 0 0 0 -1 0 0 0 0 0 0 0 0 0 0 0 0 0 0 0 0 0 0 0 0 0 0 0 0 0 0 0
0 0 0 0 0 0 0 0 0 0 0 -2 0 0 0 0 -2 0 -1 0 0 0 0 0 0 0 0 0 0 0 0 0 0 0 0 0 0 0 0 0 0 0 0 0 0 0 0
0 0 0 0 0 0 0 0 0 0 0 -1 0 0 0 0 -12 0 -2 -3 0 0 0 0 0 0 0 0 0 0 0 0 0 0 0 0 0 0 0 0 0 0 0 0 0 0 0
0 0 0 0 0 0 0 0 0 0 0 0 -5 -2 0 0 0 -1 -2 -9 0 0 0 0 0 0 0 0 0 0 0 0 0 0 0 0 0 0 0 0 0 0 0 0 0 0 0
0 0 0 0 0 0 0 0 0 0 0 0 -3 -1 0 0 0 0 -1 0 0 0 0 0 0 0 0 0 0 0 0 0 0 0 0 0 0 0 0 0 0 0 0 0 0 0 0
0 0 0 0 0 -1 -1 0 0 0 0 0 0 -13 -1 0 0 0 -74 0 0 0 0 0 0 0 0 0 0 0 0 0 0 0 0 0 0 0 0 0 0 0 0 0 0 0 0
0 -3 -1 0 0 -1 -2 -2 0 0 0 0 -1 -5 -1 0 0 -1 -6 -36 0 0 0 0 0 0 0 0 0 0 0 0 0 0 0 0 0 0 0 0 0 0 0 0 0 0 0
0 0 0 0 -1 -4 -6 -10 0 0 0 0 -1 -5 -14 -1 0 0 -2 -102 0 0 0 0 0 0 0 0 0 0 0 0 0 0 0 0 0 0 0 0 0 0 0 0 0 0 0
0 0 0 0 0 -7 -8 -6 0 0 0 -1 0 -7 -8 -5 0 0 0 0 0 0 0 0 0 0 0 0 0 0 0 0 0 0 0 0 0 0 0 0 0 0 0 0 0 0 0
0 0 0 -3 0 -1 -4 -2 -1 0 0 0 0 -3 0 -4 0 -9 0 0 -34 -14 0 0 0 0 0 0 0 0 0 0 0 0 0 0 0 0 0 0 0 0 0 0 0 0 0
0 0 0 0 0 -4 -8 -1 0 0 0 -1 -1 -11 -6 -15 0 -16 0 0 -1 -2 0 0 0 0 0 0 0 0 0 0 0 0 0 0 0 0 0 0 0 0 0 0 0 0 0
0 0 0 -3 -5 -5 -4 0 0 0 0 -2 -40 -2 0 0 -20 -2 0 0 0 0 0 0 0 0 0 0 0 0 0 0 0 0 0 0 0 0 0 0 0 0 0 0 0 0 0
0 0 0 0 -1 -3 0 0 0 0 0 0 -31 0 -3 0 -12 -2 0 0 0 0 0 0 0 0 0 0 0 0 0 0 0 0 0 0 0 0 0 0 0 0 0 0 0 0 0
0 0 0 0 0 0 -2 0 0 0 0 0 -3 -1 0 0 -25 -6 0 0 0 0 0 0 0 0 0 0 0 0 0 0 0 0 0 0 0 0 0 0 0 0 0 0 0 0 0
0 0 0 0 0 0 0 0 0 0 0 0 -1 0 0 0 -22 0 0 0 0 0 0 0 0 0 0 0 0 0 0 0 0 0 0 0 0 0 0 0 0 0 0 0 0 0 0
-2 0 0 0 0 0 0 0 0 0 0 -4 -2 0 0 -10 0 0 0 0 0 0 0 0 0 0 0 0 0 0 0 0 0 0 0 0 0 0 0 0 0 0 0 0 0 0 0
0 -1 0 0 -1 0 0 0 0 0 0 -1 0 -1 0 -4 0 0 -1 0 0 0 0 0 0 0 0 0 0 0 0 0 0 0 0 0 0 0 0 0 0 0 0 0 0 0 0
0 0 -2 0 0 0 -3 -2 0 0 0 -1 0 0 0 0 0 0 0 0 0 0 0 0 0 0 0 0 0 0 0 0 0 0 0 0 0 0 0 0 0 0 0 0 0 0 0
0 0 -1 0 0 -1 0 0 0 0 0 0 0 0 0 0 0 0 0 0 0 0 0 0 0 0 0 0 0 0 0 0 0 0 0 0 0 0 0 0 0 0 0 0 0 0 0
0 0 0 -1 0 0 0 -2 0 0 0 0 0 0 0 0 0 0 0 0 0 0 0 0 0 0 0 0 0 0 0 0 0 0 0 0 0 0 0 0 0 0 0 0 0 0 0
0 0 0 0 0 0 0 0 -4 0 -1 -1 0 0 0 0 0 0 0 0 0 0 0 0 0 0 0 0 0 0 0 0 0 0 0 0 0 0 0 0 0 0 0 0 0 0 0
0 0 0 0 0 0 0 0 0 0 -1 -2 -1 0 0 0 0 0 0 0 0 0 0 0 0 0 0 0 0 0 0 0 0 0 0 0 0 0 0 0 0 0 0 0 0 0 0
0 0 0 0 -2 -12 -1 0 0 0 0 -11 -1 0 0 0 0 0 0 0 0 0 0 0 0 0 0 0 0 0 0 0 0 0 0 0 0 0 0 0 0 0 0 0 0 0 0
0 0 0 0 0 0 -1 -2 0 0 0 -1 0 0 0 0 0 0 0 0 0 0 0 0 0 0 0 0 0 0 0 0 0 0 0 0 0 0 0 0 0 0 0 0 0 0 0
0 0 0 0 0 0 0 0 0 -4 0 -5 -2 0 0 0 0 0 0 0 0 0 0 0 0 0 0 0 0 0 0 0 0 0 0 0 0 0 0 0 0 0 0 0 0 0 0
0 0 0 0 0 0 0 0 0 0 0 -7 -15 -5 0 0 0 0 0 0 0 0 0 0 0 0 0 0 0 0 0 0 0 0 0 0 0 0 0 0 0 0 0 0 0 0 0
0 0 0 0 0 0 0 0 0 0 0 -8 0 -1 0 0 0 0 0 0 0 0 0 0 0 0 0 0 0 0 0 0 0 0 0 0 0 0 0 0 0 0 0 0 0 0 0
Wind_Speed
22 23 21 21 18 14 14 15 17 15 12 9 16 20 17 15 15 11 8 6 13 11 9 8 10 3 3 2 9 4 9 8 5 6 8 5 5 6 7 5 5 3 3 3 1 3 1
23 22 21 20 18 15 14 15 15 16 12 11 13 22 18 16 13 12 10 7 8 12 11 8 8 5 3 4 1 6 8 6 5 3 7 6 8 6 6 5 5 6 3 2 2 1 1
24 23 20 20 18 17 13 15 14 15 15 11 10 19 18 17 16 14 10 11 6 8 9 12 8 2 3 11 5 6 7 5 5 4 5 4 6 3 5 5 3 4 2 2 3 2 1
26 22 20 20 18 17 12 14 16 16 16 14 11 13 15 21 19 16 10 10 8 5 8 9 5 2 8 1 5 6 4 4 2 2 3 4 4 5 3 4 6 5 5 2 1 4 1
25 23 19 18 18 16 17 13 14 16 15 14 14 12 14 20 19 17 10 8 9 5 7 5 1 3 7 3 4 5 4 9 5 3 3 3 4 4 3 7 4 5 4 3 1 3 2
23 20 16 16 17 16 16 12 14 15 17 16 13 18 13 14 18 22 10 3 6 6 2 2 3 1 4 7 4 6 2 7 5 6 4 5 5 4 3 4 8 8 5 3 4 5 1
16 16 14 14 16 16 14 11 13 13 16 18 15 17 12 9 16 22 5 3 1 3 3 9 5 5 2 2 4 3 4 5 5 5 7 1 4 8 13 5 3 7 6 5 3 3 4
15 13 11 12 13 15 13 11 12 13 15 18 18 15 13 9 18 22 5 5 6 3 4 15 7 5 2 3 4 3 8 7 6 6 7 4 8 6 6 5 5 5 6 4 3 2 3
18 14 12 13 13 14 11 11 11 13 14 17 17 17 14 9 11 11 14 14 2 1 1 5 15 7 5 4 5 13 11 6 5 7 8 9 4 11 8 4 6 2 6 4 4 3 4
22 18 16 13 14 11 8 9 10 14 16 14 16 17 15 9 5 10 7 14 3 4 2 7 8 9 7 5 5 3 6 6 3 9 8 4 3 8 7 5 6 4 6 5 7 5 3
23 20 17 14 14 12 8 8 11 14 16 14 16 15 12 2 3 4 11 10 5 3 5 10 8 2 9 10 7 5 2 3 9 8 9 8 8 9 4 7 7 4 5 6 4 6 4
24 21 20 16 13 12 11 10 11 14 16 15 13 12 13 3 2 6 9 13 4 7 13 3 4 9 11 5 3 4 4 2 5 5 4 3 1 4 6 5 4 12 9 9 6 4 2
26 23 20 17 14 12 9 10 12 14 13 11 11 12 10 4 4 3 10 7 11 16 7 7 7 7 12 9 6 6 10 7 8 7 4 2 1 1 5 10 5 4 7 4 5 3 8
27 25 22 18 14 12 10 11 12 11 10 11 14 17 9 7 4 3 5 7 13 15 10 4 6 9 8 10 3 7 13 12 6 4 6 8 3 9 5 6 10 6 7 9 10 6 5
27 25 23 21 19 15 12 12 13 10 9 11 16 3 5 4 7 6 1 8 7 10 9 11 7 17 5 4 7 6 11 16 14 11 8 6 3 2 2 3 7 7 5 5 9 3 4
28 26 24 23 22 20 15 13 11 10 11 13 5 7 8 8 12 5 4 6 7 7 12 6 8 8 9 13 6 4 12 7 8 10 3 8 5 3 0 2 3 4 9 5 2 6 5
30 27 26 24 24 21 17 14 13 12 13 14 2 5 5 5 8 3 5 8 9 7 5 9 6 7 6 12 8 10 12 2 11 11 6 6 6 2 3 6 9 4 4 5 6 5 8
31 30 28 25 25 23 22 16 15 14 16 4 2 5 3 5 5 3 6 10 7 7 5 5 6 7 10 13 7 8 14 4 8 14 18 6 7 5 6 3 2 2 6 6 7 6 2
30 31 28 27 24 24 23 21 19 18 17 1 3 5 4 2 4 4 5 11 12 16 6 6 7 4 4 10 8 6 6 3 4 13 16 11 5 5 4 4 3 4 6 5 6 3 8
29 29 30 28 26 23 23 24 23 22 20 4 2 4 3 2 2 4 5 7 11 17 4 3 4 5 7 5 3 12 5 2 2 3 4 9 4 8 14 6 9 7 7 7 8 4 6
30 30 29 28 28 26 25 23 23 24 22 3 2 4 2 4 3 4 8 10 20 7 1 2 2 3 7 6 3 5 5 4 4 1 4 5 7 4 3 4 5 5 10 17 16 17 9
29 28 29 28 28 27 26 26 24 24 24 1 3 3 2 6 9 8 7 11 23 5 8 5 6 4 3 7 8 10 9 5 7 2 5 1 2 4 2 2 1 3 7 17 19 4 4
28 27 26 27 27 26 27 26 26 24 18 3 2 3 2 5 4 4 2 6 15 11 1 2 8 6 4 3 4 8 5 11 7 9 5 5 6 3 4 1 3 4 8 9 5 5 11
31 32 29 24 24 25 26 26 25 23 15 2 1 3 3 5 4 5 6 3 16 14 11 4 3 5 4 12 10 9 15 15 13 9 4 7 7 4 3 3 2 4 2 1 5 1 3
33 33 34 26 24 24 23 22 22 21 21 1 3 2 3 4 4 7 11 2 3 4 4 4 3 2 14 4 6 5 4 5 6 6 5 5 5 4 6 4 2 2 7 8 8 5 5
33 33 34 33 29 28 23 20 21 20 20 3 2 2 3 3 2 8 6 5 1 4 3 4 4 9 3 4 4 5 5 4 5 3 5 5 3 4 1 5 9 1 4 4 3 5 8
32 33 33 34 32 30 29 27 25 23 18 3 3 4 3 3 4 5 3 3 3 2 4 4 6 2 3 3 2 3 6 1 5 9 6 4 2 12 7 4 7 4 3 2 8 7 8
31 32 32 33 33 33 30 28 28 24 22 8 3 5 4 2 3 5 8 6 5 4 1 4 5 2 1 4 5 4 4 6 4 1 6 10 9 7 3 5 13 5 3 7 3 6 10
31 31 31 30 32 31 32 29 27 26 22 15 4 6 5 1 3 3 2 4 6 5 2 3 3 3 2 5 2 4 3 2 6 5 1 4 4 6 2 3 3 4 2 2 4 13 7
Wind_Direction
297 299 296 295 290 296 286 292 301 299 300 311 309 303 297 288 289 257 247 251 295 296 302 316 319 306 137 221 254 159 137 133 108 127 151 152 145 140 160 162 119 171 186 157 125 152 112
295 292 291 290 290 288 286 285 297 299 298 293 320 306 303 296 290 254 251 223 269 297 306 307 316 293 180 224 120 143 130 131 154 144 155 147 183 189 117 152 155 183 166 137 165 118 93
294 289 283 284 287 284 283 280 287 291 292 293 322 316 321 302 295 250 236 258 227 277 304 309 300 236 237 232 149 136 138 165 167 158 152 187 153 122 133 122 143 115 114 331 192 189 171
292 283 285 279 276 283 272 280 281 287 291 302 307 299 311 320 318 259 225 252 253 264 294 306 279 157 252 49 130 132 146 77 109 95 137 150 150 110 103 115 39 87 52 110 9 134 354
284 285 275 276 270 270 282 281 280 284 290 299 301 299 304 313 327 293 219 239 271 266 285 292 271 188 251 123 161 179 143 140 111 41 58 88 61 108 57 106 47 15 172 192 293 181 125
286 282 274 277 276 271 279 286 284 283 285 282 302 296 290 307 321 317 217 193 291 295 181 177 258 186 206 215 179 146 131 137 128 116 61 55 55 96 64 120 193 179 172 197 199 202 98
305 281 276 283 276 273 273 282 290 287 292 292 279 290 301 311 317 323 190 76 39 245 168 194 189 243 117 110 115 136 155 107 97 84 147 61 125 197 200 153 127 133 127 147 166 184 141
328 304 286 287 286 277 272 282 287 291 291 298 302 305 290 324 320 316 238 184 215 209 208 221 221 279 228 233 108 162 146 128 142 161 129 88 230 189 134 153 114 123 129 176 66 92 128
357 341 318 310 300 279 273 280 290 301 305 306 308 311 308 307 339 304 227 193 113 318 251 259 209 180 200 171 215 191 151 145 134 138 182 162 214 147 135 150 143 178 156 171 146 114 42
357 351 334 323 312 298 286 285 306 310 308 315 312 318 322 312 325 328 212 206 159 82 233 251 192 226 155 161 253 159 189 133 158 169 133 208 143 144 124 161 126 192 188 146 132 98 204
357 354 350 335 326 325 307 304 307 309 314 315 321 324 342 72 106 295 311 284 157 72 230 220 184 77 149 159 145 232 191 74 159 162 132 225 155 135 142 190 149 186 93 96 76 81 62
1 357 350 343 338 325 310 311 307 309 311 311 326 325 343 99 201 244 304 258 148 144 220 179 133 161 134 144 105 112 144 65 135 111 57 125 147 158 158 76 133 156 82 51 62 82 17
359 359 358 348 347 341 344 327 326 322 319 323 319 320 312 251 230 55 323 254 198 200 158 184 176 169 156 150 122 148 167 176 154 118 167 96 165 324 130 87 12 89 96 28 8 14 218
3 1 1 357 353 336 333 328 329 330 332 329 326 312 278 241 161 98 326 232 201 177 167 142 135 136 177 145 116 163 149 193 254 102 130 146 217 178 192 167 168 179 159 154 190 190 214
3 5 2 1 357 354 353 342 330 325 323 318 328 307 266 253 175 108 73 250 197 181 156 134 83 153 163 200 132 145 186 190 189 180 143 137 210 34 44 133 138 189 195 154 103 34 62
6 2 6 3 359 357 353 345 340 331 322 327 316 301 258 243 159 112 210 237 268 230 134 155 142 171 168 172 131 156 168 188 185 179 187 194 109 10 55 107 39 152 152 82 11 142 231
3 5 2 4 1 356 353 350 345 338 329 330 266 288 277 134 161 166 198 215 246 241 197 151 137 136 161 167 151 184 197 283 178 179 140 139 106 316 136 222 165 146 173 64 115 140 162
5 1 3 3 5 1 358 346 332 328 326 316 255 264 325 133 224 200 185 195 223 230 227 198 127 113 165 157 156 177 194 241 175 153 191 174 115 151 197 294 300 139 172 143 131 214 202
358 0 1 0 2 4 2 2 356 343 334 229 230 263 307 179 226 208 230 223 228 199 197 187 175 152 169 161 162 168 174 126 165 171 170 177 186 103 6 352 354 199 200 158 111 87 193
0 355 358 358 0 0 356 354 351 346 342 327 272 296 270 245 310 264 241 211 202 198 199 196 146 108 118 144 6 167 137 168 132 148 97 141 130 194 209 182 138 189 181 181 166 154 166
1 356 351 354 355 359 353 352 346 343 343 328 183 248 233 280 231 249 275 203 186 149 188 165 83 194 149 133 108 133 118 121 51 110 74 144 167 139 40 110 126 169 180 184 200 206 182
0 354 350 348 348 350 351 349 345 341 341 235 270 274 233 267 285 265 232 204 183 164 136 224 160 151 120 152 174 180 141 149 170 126 123 358 162 112 60 88 177 194 195 198 209 160 266
356 351 348 345 345 344 344 345 343 342 347 272 208 271 247 265 284 273 241 192 199 145 23 97 146 119 76 149 121 94 66 87 116 136 125 127 130 97 207 35 89 315 204 182 183 175 184
356 353 345 341 342 343 340 340 337 340 352 282 305 247 283 291 301 300 306 258 204 195 134 151 93 99 204 144 112 64 58 68 60 41 50 131 108 106 172 44 153 242 11 330 145 101 135
357 357 360 357 350 343 337 333 335 339 346 265 295 330 301 294 320 295 334 323 91 117 70 105 40 304 157 138 80 80 7 45 29 40 4 75 115 94 140 212 280 336 188 174 172 218 178
359 356 0 1 2 354 353 344 343 344 336 321 274 273 265 285 320 306 324 347 66 127 93 88 38 114 350 71 77 142 162 156 171 110 352 94 125 114 136 176 212 167 169 178 150 276 175
0 358 358 360 360 3 3 360 350 342 341 0 283 354 277 273 16 338 357 332 341 357 107 120 133 102 344 112 154 186 214 149 174 188 158 98 46 213 197 212 274 230 170 162 151 236 147
357 358 357 356 356 358 2 5 2 2 2 358 288 5 313 292 329 359 2 4 342 3 54 146 113 127 95 132 154 169 161 196 99 156 168 187 179 197 141 190 243 157 48 170 186 74 120
355 353 354 353 353 352 352 354 360 1 5 3 333 329 316 342 324 317 316 32 359 307 311 14 56 103 133 112 134 124 127 149 154 174 38 202 191 166 144 138 34 34 70 71 135 125 125